星链-11298 (STARLINK-11298)

导读 | 豆包AI

STARLINK-11298是美国SpaceX星链星座中的一颗卫星,于2024年9月20日发射入轨,属于星链互联网卫星星座的扩容卫星。它延续星链卫星设计,将为全球偏远地区、海洋空域等提供低延迟、高速率的宽带互联网服务,推进星链星座全球覆盖目标的实现。

基本信息
目录编号:
61211
目录名称:
STARLINK-11298
国际标识:
2024-171M
轨道中心:
EARTH
卫星名称:
星链-11298
卫星全名:
星链-11298 (STARLINK-11298)
卫星状态:
在轨 (已飞行541 天)
发射日期:
2024-09-20 UTC
国别 :
美国 (US)
星等 :
--
轨道信息
数据来源 国际轨道数据
星历时间: 2026-03-14T19:00:36+0800
1天前
查看轨道信息
半长轴: 6737.841km
偏心率: 0.0000689
轨道倾角: 53.159°
近地点辐角 58.772°
升交点赤经 153.050°
平近点角 301.337°
近地点: 359.239km
远地点: 360.169km
周期: 91.736分钟
每日圈数: 15.69718
详细信息
固有亮度:
5
最大亮度:
2.5
卫星平台:
Starlink V1.0
覆盖范围:
全球
运营商:
太空探索技术公司
运营商所在国:
美国
制造商(研发单位):
太空探索技术公司
制造商所在国:
美国
使用方式:
暂无
卫星简介
Starlink 计划是 SpaceX 推出的全球卫星互联网项目,通过发射低轨道卫星,为全球尤其是偏远地区提供高速、低延迟的互联网服务。自 2019 年起,Starlink 已部署数千颗卫星,旨在缩小全球数字鸿沟,推动互联网普及。该项目还为军事、航空等行业提供通信支持,带来广泛经济效益。
2D轨道图
3D轨道图
轨道高度分析图
轨道倾角分析图
轨道综合分析图
查看轨道综合分析图